This demonstration page uses our WeatherBlox Daily Observations layout. Learn more.

38.88101, -77.10428

Hourly Observations for January 11, 2016

Temp ( °F °C ) Dew Point ( °F °C ) Humidity (%) Winds ( mph kmh ) Pressure ( in mb ) Visibility ( mi km ) Precip ( " mm )
12:52 am 00:52 Clear 36 2 18 -8 48 48 WNW 16 26 29.88 1012 10 16.09344 0 0
1:52 am 01:52 Clear 34 1 14 -10 44 44 WNW 12 19 29.91 1013 10 16.09344 0 0
2:52 am 02:52 Clear 32 0 12 -11 44 44 WNW 13 20 29.94 1014 10 16.09344 0 0
3:52 am 03:52 Clear 30 -1 12 -11 47 47 W 10 17 29.97 1015 10 16.09344 0 0
4:52 am 04:52 Clear 30 -1 10 -12 43 43 NW 6 9 30 1016 10 16.09344 0 0
5:52 am 05:52 Clear 28 -2 10 -12 47 47 WNW 8 13 30.03 1017 10 16.09344 0 0
6:52 am 06:52 Clear 28 -2 9 -13 43 43 WNW 15 24 30.06 1018 10 16.09344 0 0
7:52 am 07:52 Sunny 28 -2 9 -13 43 43 WNW 13 20 30.06 1018 10 16.09344 0 0
8:52 am 08:52 Sunny 30 -1 9 -13 40 40 WNW 12 19 30.09 1019 10 16.09344 0 0
9:52 am 09:52 Sunny 34 1 10 -12 38 38 WNW 8 13 30.12 1020 10 16.09344 0 0
10:52 am 10:52 Mostly Sunny 36 2 10 -12 35 35 WSW 13 20 30.12 1020 10 16.09344 0 0
11:52 am 11:52 Mostly Sunny 37 3 10 -12 33 33 WSW 13 20 30.09 1019 10 16.09344 0 0
12:52 pm 12:52 Mostly Sunny 37 3 10 -12 33 33 SW 8 13 30.06 1018 10 16.09344 0 0
1:52 pm 13:52 Mostly Sunny 39 4 7 -14 26 26 W 9 15 30.03 1017 10 16.09344 0 0
2:52 pm 14:52 Mostly Sunny 39 4 7 -14 26 26 W 14 22 30.06 1018 10 16.09344 0 0
3:52 pm 15:52 Mostly Sunny 39 4 3 -16 22 22 WNW 8 13 30.06 1018 10 16.09344 0 0
4:52 pm 16:52 Mostly Sunny 37 3 5 -15 26 26 NW 8 13 30.09 1019 10 16.09344 0 0
5:52 pm 17:52 Partly Cloudy 36 2 9 -13 32 32 NNW 13 20 30.09 1019 10 16.09344 0 0
6:52 pm 18:52 Mostly Cloudy 34 1 9 -13 35 35 NNW 12 19 30.12 1020 10 16.09344 0 0
7:52 pm 19:52 Mostly Cloudy 32 0 10 -12 40 40 N 10 17 30.12 1020 10 16.09344 0 0
8:52 pm 20:52 Partly Cloudy 30 -1 10 -12 43 43 NNW 8 13 30.12 1020 10 16.09344 0 0
9:52 pm 21:52 Partly Cloudy 30 -1 10 -12 43 43 N 5 7 30.12 1020 10 16.09344 0 0
10:52 pm 22:52 Mostly Cloudy 30 -1 14 -10 51 51 ESE 5 7 30.12 1020 10 16.09344 0 0
11:52 pm 23:52 Mostly Cloudy 30 -1 12 -11 47 47 Calm 30.12 1020 10 16.09344 0 0

Powered by AerisWeather